Aérodrome :
LOGIN :

S'inscrire | Disclaimer

   EN    FR    IT 

 










Légende :    VFR   VFR Marginal   IFR   IFR Intensif   IFR Très Intensif
Visi : 
Plafond : 
>= 8 km
>= 3000ft
5 à 8 km
1000 à 3000 ft
1500m à 5 km
500 à 1000 ft
800 à 1500m
200 à 500 ft
< 800m
< 200 ft
Symboles :   Orages  Brouillard  Fortes neiges  Fortes précipitations  Vent > 20 kt
SIGMETs :   Divers  Orages  Givrage  Turbulence  Onde Orograph.  Cendres Volcan.







- Altitude de l'aérodrome : 138 ft
- Code IATA : RLG


ETNL - Rostock Laage

DERNIER METAR :
  • 261120Z 34010KT 9999 BKN011 BKN018 17/15 Q1004 GRN WHT TEMPO GRN

METARs EXPIRÉS :
  • 261020Z 36010KT 9999 SCT013 BKN020 17/15 Q1004 WHT WHT TEMPO GRN
  • 260920Z 01010KT 9999 BKN010 BKN015 17/15 Q1004 GRN GRN BECMG WHT

TAF AMD TAF ETNL
Valide du 26 à 12h jusqu'au 26 à 20h UTC


261224Z 2612/2620 34010KT 9999 NSW SCT015 BKN022
TEMPO 2612/2614 33010G20KT 5000 -RA BKN012 BKN020
BECMG 2614/2616 30008KT 9999 NSW SCT025 BKN100 BY ETGL
Pas de NOTAMs connus pour ce terrain.



MET'MAP, la Météo Aéronautique d'un coup d'oeil ! - Copyright ORBIFLY Décembre 2007 - Disclaimer

ORBIFLY MET'MAP TEAM :

Programmation & Développement : Alexandra Zaïnal
Conception & Développement : Baudouin d'Aumeries
Co-Programmation & Développement : Marc-Olivier Méhu
Soutien technique & logistique : Manuel Goepfert

Contact : metmap@orbifly.com




SOURCES & CREDITS :

   NOAA